Location: *
(43.7333°N, 16.6333°E)
Time: 08:13:30
(UTC+00:00)

Daily predictions for brighter satellites

Satellite Brightness Start Highest point End
(mag) Time Altitude Azimuth Time Altitude Azimuth Time Altitude Azimuth
Cosmos 2251 Rocket 3.6 17:48:37 10° SSW 17:54:00 88° ESE 17:59:25 10° NNE
ATLAS 2AS CENTAUR R/B 3.4 17:49:19 10° NNW 17:56:39 46° NE 18:03:23 10° ESE
Cosmos 1437 3.2 17:57:12 10° N 18:00:02 36° ENE 18:02:51 10° SE
Cosmos 1908 4.4 17:57:34 10° SE 18:00:41 24° E 18:03:49 10° NE
CZ-4 R/B 3.5 17:57:39 10° SSW 18:01:02 29° W 18:04:27 10° NW
CSL-04 Rocket 4.3 17:56:01 10° S 18:01:14 60° WSW 18:06:29 10° NNW
YAOGAN 1 4.1 17:58:58 10° SSW 18:03:02 40° W 18:07:08 10° NNW
Cosmos 1943 3.2 17:57:30 10° SSW 18:03:07 73° ESE 18:08:47 10° NNE
Cosmos 2263 4.2 17:58:08 10° NNW 18:03:46 74° ENE 18:09:21 10° SSE
SeaSat 1 2.9 18:01:33 10° NNE 18:06:28 69° WNW 18:11:21 10° SW
Ariane Rocket 3.0 18:01:36 10° SSE 18:06:37 67° ENE 18:11:39 10° N
HJ-1C 3.7 18:05:43 10° S 18:09:03 69° W 18:12:26 10° NNW
Cosmos 1140 Rocket 4.5 18:05:59 10° SSE 18:10:08 25° E 18:14:16 10° NE
IRS-1A Rocket 4.4 18:04:30 10° SSE 18:10:10 70° ENE 18:16:00 10° N
Cosmos 1470 4.4 18:07:44 10° SSW 18:11:23 39° WNW 18:15:05 10° N
Cosmos 1953 2.3 18:07:29 10° S 18:11:27 87° W 18:15:28 10° N
Cosmos 1656 Rocket 3.8 18:07:37 10° NNW 18:13:13 59° ENE 18:18:42 10° SE
IRIDIUM 104 4.3 18:08:04 10° N 18:13:17 68° E 18:18:28 10° SSE
Aureole 2 Rocket 4.1 18:12:03 10° NW 18:15:14 35° WSW 18:18:19 10° S
Cosmos 2184 Rocket 4.0 18:09:43 10° N 18:15:58 64° E 18:22:07 10° SSE
Cosmos 1726 2.0 18:12:31 10° S 18:16:15 76° E 18:19:59 10° NNE
COSMOS 2455 3.9 18:12:14 10° NNW 18:17:27 29° NE 18:22:01 13° E
Meteor 2-10 4.1 18:12:50 10° S 18:18:17 79° E 18:23:56 10° NNE
Cosmos 2058 Rocket 4.0 18:16:33 10° SSE 18:20:24 28° E 18:24:16 10° NNE
CZ-2C R/B 3.6 18:17:03 10° NE 18:21:16 25° E 18:25:29 10° SSE
IRIDIUM 114 4.3 18:17:12 10° N 18:22:27 82° E 18:27:40 10° S
Cosmos 614 Rocket 4.1 18:17:24 10° S 18:22:28 53° ESE 18:27:31 10° NNE
ARGOS 3.1 18:20:18 10° SSE 18:25:39 72° ENE 18:31:02 10° N
Cosmos 1726 Rocket 3.7 18:24:07 10° S 18:28:24 53° E 18:32:44 10° NNE
FREGAT/IRIS 2.3 18:26:26 10° SSE 18:29:09 87° WSW 18:31:53 10° NNW
IRIDIUM 103 4.4 18:26:23 10° N 18:31:38 83° W 18:36:50 10° S
Resurs 01 Rocket 2.7 18:30:56 17° ESE 18:33:16 26° ENE 18:36:56 10° N
SL-24 R/B 4.1 18:30:08 10° NNE 18:33:59 42° E 18:37:31 10° S
Nadezhda 1 Rocket 4.1 18:28:39 10° S 18:34:56 63° E 18:41:12 10° NNE
Cosmos 1825 Rocket 3.6 18:32:35 10° N 18:37:00 86° W 18:41:21 10° S
USA 186 2.1 18:34:13 10° S 18:37:33 69° WSW 18:40:45 10° NNW
Cosmos 2154 Rocket 4.1 18:32:18 10° N 18:38:37 62° E 18:44:50 10° SSE
APEX 4.3 18:32:54 10° NNW 18:39:23 63° ENE 18:43:26 18° SE
GEOS 3 Rocket 4.4 18:35:59 10° SSE 18:40:55 48° WSW 18:45:58 10° NW
Cosmos 921 Rocket 3.7 18:39:19 10° N 18:43:09 34° ENE 18:44:56 24° ESE
SL-24 R/B - RUBIN 2 4.2 18:38:05 10° SSW 18:43:31 68° ESE 18:49:43 10° NE
Cosmos 407 Rocket 3.4 18:38:39 10° S 18:43:45 68° ESE 18:48:51 10° NNE
STARLINK-1234 4.3 18:43:48 10° NW 18:46:31 28° NNE 18:47:45 21° ENE
Cosmos 2228 3.1 18:42:51 10° S 18:47:08 81° W 18:51:30 10° N
STARLINK-1209 4.2 18:44:58 10° NW 18:47:42 29° NNE 18:48:51 22° ENE
SPOT 3 Rocket 3.5 18:43:53 12° SSE 18:48:42 69° ENE 18:53:53 10° N
Cosmos 1758 Rocket 4.4 18:46:31 10° NNW 18:50:43 50° W 18:54:52 10° SSW
Aureole 1 Rocket 4.1 18:44:31 10° SSW 18:52:14 84° ESE 18:58:18 10° NNE
STARLINK-1217 4.5 18:49:34 10° NW 18:52:16 26° NNE 18:53:24 20° ENE
STARLINK-1208 4.5 18:49:58 10° NW 18:52:42 26° NNE 18:53:51 21° ENE
STARLINK-1229 4.5 18:50:28 10° NW 18:53:09 26° NNE 18:54:16 21° NE
Cosmos 1461 3.3 18:48:49 10° NNW 18:53:18 57° NE 18:55:35 28° ESE
STARLINK-1271 4.5 18:50:55 10° NW 18:53:37 26° NNE 18:54:42 21° NE
STARLINK-1270 4.5 18:51:22 10° NW 18:54:05 26° NNE 18:55:08 21° NE
STARLINK-1154 4.5 18:51:49 10° NW 18:54:32 26° NNE 18:55:34 22° NE
SJ-6B 3.3 18:51:16 10° S 18:55:21 65° W 18:59:29 10° NNW
STARLINK-1197 4.4 18:52:43 10° NW 18:55:26 26° NNE 18:56:26 22° NE
STARLINK-1189 4.4 18:53:10 10° NW 18:55:53 27° NNE 18:56:52 22° NE
STARLINK-1198 4.4 18:53:37 10° NW 18:56:20 27° NNE 18:57:18 22° NE
STARLINK-1188 4.4 18:54:04 10° NW 18:56:48 27° NNE 18:57:44 23° NE
STARLINK-29 2.8 18:54:19 10° SW 18:57:29 70° SE 18:58:47 32° ENE
STARLINK-1235 4.1 18:54:38 10° NW 18:57:32 32° NNE 18:58:23 27° ENE
STARLINK-1187 4.2 18:55:06 10° NW 18:57:57 30° NNE 18:58:50 25° NE
Cosmos 1606 Rocket 4.2 18:53:49 10° SSW 18:58:11 58° W 19:02:36 10° N
Cosmos 1953 Rocket 3.7 18:54:13 10° NNW 18:58:42 76° W 19:03:11 10° S
STARLINK-1199 4.3 18:55:58 10° NW 18:58:45 28° NNE 18:59:39 24° NE
ATLAS 5 CENTAUR R/B 1.3 18:55:02 10° SSW 18:59:08 80° SE 19:03:44 10° NE
STARLINK-1191 4.3 18:56:26 10° NW 18:59:14 28° NNE 19:00:06 24° NE
STARLINK-60 3.8 18:56:20 10° WSW 18:59:33 52° NNW 19:02:13 14° NE
STARLINK-1210 4.3 18:56:52 10° NW 18:59:40 28° NNE 19:00:31 24° NE
STARLINK-1221 4.3 18:57:20 10° NW 19:00:08 28° NNE 19:00:57 25° NE
STARLINK-1219 4.3 18:57:46 10° NW 19:00:35 28° NNE 19:01:23 25° NE
STARLINK-1222 4.3 18:58:14 10° NW 19:01:03 28° NNE 19:01:49 25° NE
STARLINK-1211 4.3 18:58:41 10° NW 19:01:29 29° NNE 19:02:15 25° NE
STARLINK-1214 4.3 18:59:08 10° NW 19:01:56 29° NNE 19:02:41 26° NE
STARLINK-1245 4.2 18:59:37 10° NW 19:02:25 29° NNE 19:03:07 26° NE
STARLINK-1238 4.2 19:00:01 10° NW 19:02:51 29° NNE 19:03:34 26° NE
STARLINK-1205 4.2 19:00:58 10° NW 19:03:47 29° NNE 19:04:25 27° NE
STARLINK-1204 4.2 19:01:24 10° NW 19:04:13 29° NNE 19:04:50 27° NE
Cosmos 1954 Rocket 4.1 19:02:51 10° S 19:07:56 53° ESE 19:13:01 10° NNE
Cosmos 1023 Rocket 4.4 19:04:05 10° SSW 19:09:16 86° ESE 19:14:26 10° NNE
Abrixas rocket 2.6 19:08:22 10° WNW 19:11:14 43° NNE 19:11:30 42° NNE
Cosmos 2058 4.2 19:11:35 10° NNE 19:14:34 25° ENE 19:14:34 25° ENE
NOSS 3-4 (A) 3.9 19:08:30 10° NW 19:15:35 79° WSW 19:20:34 24° SSE
NOSS 3-4 (C) 3.9 19:08:36 10° NW 19:15:41 79° WSW 19:20:38 25° SSE
Cosmos 1300 2.6 19:17:24 55° SE 19:17:54 62° E 19:21:42 10° NNE
FALCON 9 DEB 3.1 19:15:56 10° WSW 19:19:27 83° NW 19:20:16 50° NE
SL-4 R/B 3.2 19:17:33 10° W 19:20:38 31° NNW 19:22:39 17° NE
Cosmos 1076 Rocket 4.4 19:18:43 10° N 19:22:14 32° ENE 19:22:14 32° ENE
Cosmos 1340 Rocket 3.4 19:18:37 10° SSW 19:22:37 57° WNW 19:26:36 10° N
MOS 1 Rocket 3.6 19:18:07 10° NNE 19:23:34 86° W 19:29:00 10° SSW
H-2A R/B 3.9 19:20:24 10° SSW 19:24:51 28° W 19:29:14 10° NW
STARLINK-1201 3.9 19:22:27 10° NW 19:25:27 39° NNE 19:25:27 39° NNE
STARLINK-67 4.2 19:25:36 10° NW 19:27:10 32° WNW 19:27:10 32° WNW
MetOp-B 4.1 19:33:00 46° SE 19:34:28 67° ENE 19:39:48 10° N
SAR-Lupe-2 4.3 19:34:14 10° NNE 19:36:46 43° NNE 19:36:46 43° NNE
STARLINK-52 3.9 19:34:54 10° WSW 19:37:29 47° WNW 19:37:29 47° WNW
USA 234 3.1 19:35:21 10° NE 19:41:52 65° SE 19:48:21 10° SW
Iridium 4 Rocket 3.7 19:41:51 10° N 19:44:58 41° NE 19:44:58 41° NE
ATLAS 2AS CENTAUR R/B 3.5 19:40:37 10° NW 19:47:41 47° WSW 19:51:22 25° S
CZ-4C R/B 4.2 19:47:44 10° NNW 19:53:26 26° NNE 19:56:49 20° ENE
Cosmos 2341 Rocket 4.4 19:50:04 10° NNW 19:56:22 62° W 19:59:56 27° SSW
Meteor 2-1 Rocket 4.2 19:56:24 61° SE 19:57:12 70° E 20:03:06 10° NNE
Spot 2 Rocket 3.4 19:56:54 71° SSE 19:57:27 89° SW 20:02:37 10° NNW
Landsat 7 3.8 19:58:57 67° NE 19:58:57 67° NE 20:03:24 10° N
CZ-2C R/B 3.7 19:56:51 10° N 20:01:44 43° WNW 20:06:36 10° SW
COSMOS 2455 3.2 19:57:50 10° NW 20:03:45 58° WSW 20:05:11 46° SSW
Cosmos 1697 Rocket 3.8 19:59:03 10° N 20:04:01 30° NE 20:04:03 30° NE
IGS 5A 4.2 20:06:53 49° N 20:06:53 49° N 20:09:58 10° N
Resurs 01 Rocket 3.1 20:08:29 27° SW 20:09:38 31° W 20:13:35 10° NNW
Cosmos 2218 Rocket 4.0 20:04:33 10° N 20:10:46 77° W 20:12:18 53° SSW
ATLAS CENTAUR R/B 3.7 20:15:19 10° N 20:16:45 15° NNE 20:16:45 15° NNE
Cosmos 468 Rocket 4.0 20:13:19 10° NNW 20:18:01 74° NNW 20:18:01 74° NNW
Meteor 2-12 Rocket 4.3 20:16:58 10° N 20:23:05 82° W 20:23:32 76° SSW
ERS-1 Rocket 3.3 20:27:20 61° N 20:27:20 61° N 20:31:29 10° NNW
Cosmos 1656 3.8 20:25:52 10° NNW 20:30:57 69° N 20:30:57 69° N
SPOT 5 4.0 20:34:14 35° N 20:34:14 35° N 20:36:46 10° N
Cosmos 1980 Rocket 3.6 20:28:25 10° N 20:32:34 27° NE 20:32:34 27° NE
Terra 3.0 20:42:27 38° N 20:42:27 38° N 20:45:26 10° N
ATLAS 5 CENTAUR R/B 4.3 20:41:23 10° WNW 20:44:27 18° NNW 20:47:47 10° NNE
Nadezhda 3 Rocket 4.1 20:50:21 68° NNE 20:50:21 68° NNE 20:55:47 10° N
Cosmos 2082 Rocket 4.2 21:03:59 19° NE 21:03:59 19° NE 21:05:33 10° NNE
Cosmos 1833 Rocket 4.0 21:13:44 32° NNE 21:13:44 32° NNE 21:16:42 10° NNE
BREEZE M DEB (TANK) 4.4 21:14:11 10° W 21:18:59 63° N 21:36:59 10° ENE
COSMOS 2406 4.3 21:20:59 41° NW 21:20:59 41° NW 21:26:03 10° NNE
USA 234 4.1 21:18:31 10° NE 21:24:43 47° NNW 21:30:55 10° W
CZ-4C R/B 3.1 21:35:46 10° NW 21:41:59 68° N 21:41:59 68° N
Cosmos 1697 Rocket 4.3 21:42:46 10° NW 21:45:47 29° NW 21:45:47 29° NW
Mayak 1.8 21:47:13 10° N 21:47:46 13° N 21:47:46 13° N
SL-16 R/B 3.9 22:01:13 10° NNW 22:04:13 29° N 22:04:13 29° N
Cosmos 2360 Rocket 4.2 22:05:29 10° N 22:08:30 21° NNE 22:08:30 21° NNE
Cosmos 2322 Rocket 4.0 22:09:41 10° NNW 22:12:34 28° N 22:12:34 28° N
Cosmos 1980 Rocket 4.1 22:12:03 10° NW 22:14:19 24° NW 22:14:19 24° NW
Cosmos 2082 Rocket 4.2 22:45:47 24° NNW 22:45:47 24° NNW 22:49:11 10° N
Cosmos 2219 Rocket 4.2 23:03:56 10° N 23:07:20 22° NNE 23:07:20 22° NNE
COSMOS 2428 4.5 23:24:29 10° N 23:28:05 28° NNE 23:28:05 28° NNE
SJ 16-02 4.5 23:37:59 10° NE 23:37:59 10° NE 23:38:04 10° NE
Resurs 1-4 Rocket 4.3 23:35:58 10° NE 23:37:53 18° ENE 23:37:53 18° ENE
Cosmos 2360 Rocket 4.3 23:48:49 10° NNW 23:50:15 18° NW 23:50:15 18° NW
